| time (UTC) | temp C | wind direction | speed KPH | gust KPH | rain 1hr cm | rain 24hr cm | rain mn cm | humidity % | barometer mb |
| 20260505204633 | 11 | 340 | 0.0 | 0.0 | 0.00 | 0.00 | 0.41 | 100 | 1006.0 |
| 20260505203633 | 11 | 340 | 0.0 | 0.0 | 0.00 | 0.00 | 0.41 | 100 | 1006.0 |
| 20260505202633 | 11 | 340 | 0.0 | 0.0 | 0.00 | 0.00 | 0.41 | 100 | 1006.0 |
| 20260505201633 | 11 | 340 | 0.0 | 0.0 | 0.00 | 0.00 | 0.41 | 100 | 1006.0 |
| 20260505200633 | 11 | 340 | 0.0 | 0.0 | 0.00 | 0.00 | 0.41 | 100 | 1004.9 |
| 20260505195633 | 11 | 335 | 0.0 | 0.0 | 0.00 | 0.00 | 0.41 | 100 | 1004.9 |
| 20260505194633 | 11 | 335 | 0.0 | 0.0 | 0.00 | 0.00 | 0.41 | 100 | 1004.9 |
| 20260505193633 | 12 | 335 | 0.0 | 0.0 | 0.00 | 0.00 | 0.41 | 100 | 1006.0 |
| 20260505192633 | 12 | 335 | 0.0 | 0.0 | 0.00 | 0.00 | 0.41 | 100 | 1006.0 |
| 20260505191633 | 12 | 335 | 0.0 | 0.0 | 0.00 | 0.00 | 0.41 | 100 | 1006.0 |
| 20260505190633 | 12 | 335 | 0.0 | 0.0 | 0.00 | 0.00 | 0.41 | 100 | 1004.9 |
| 20260505185633 | 12 | 335 | 0.0 | 0.0 | 0.00 | 0.00 | 0.41 | 100 | 1004.9 |
| 20260505184633 | 12 | 340 | 0.0 | 0.0 | 0.00 | 0.00 | 0.41 | 99 | 1004.9 |
| 20260505183633 | 12 | 335 | 0.0 | 0.0 | 0.00 | 0.00 | 0.41 | 99 | 1004.9 |
| 20260505182633 | 12 | 335 | 0.0 | 0.0 | 0.00 | 0.00 | 0.41 | 99 | 1004.9 |
| 20260505181633 | 12 | 340 | 0.0 | 0.0 | 0.00 | 0.00 | 0.41 | 99 | 1004.9 |
| 20260505180633 | 12 | 340 | 0.0 | 0.0 | 0.00 | 0.00 | 0.41 | 99 | 1004.9 |
| 20260505175633 | 12 | 340 | 0.0 | 0.0 | 0.00 | 0.00 | 0.41 | 99 | 1004.8 |
| 20260505174633 | 12 | 340 | 0.0 | 0.0 | 0.00 | 0.00 | 0.41 | 99 | 1004.8 |
| 20260505173633 | 12 | 340 | 4.8 | 0.0 | 0.00 | 0.00 | 0.41 | 99 | 1004.8 |
| 20260505172633 | 13 | 340 | 3.2 | 0.0 | 0.18 | 0.00 | 0.41 | 99 | 1004.8 |
| 20260505171633 | 13 | 335 | 0.0 | 0.0 | 0.18 | 0.00 | 0.41 | 99 | 1004.8 |
| 20260505170633 | 13 | 335 | 8.0 | 0.0 | 0.18 | 0.00 | 0.41 | 99 | 1004.8 |
| 20260505165633 | 13 | 335 | 1.6 | 0.0 | 0.18 | 0.00 | 0.41 | 99 | 1003.8 |
| 20260505164633 | 13 | 340 | 3.2 | 0.0 | 0.18 | 0.00 | 0.41 | 99 | 1004.8 |
| 20260505163633 | 13 | 340 | 6.4 | 0.0 | 0.18 | 0.00 | 0.41 | 99 | 1004.8 |
| 20260505162633 | 13 | 340 | 1.6 | 0.0 | 0.23 | 0.00 | 0.41 | 99 | 1004.8 |
| 20260505161633 | 13 | 340 | 4.8 | 0.0 | 0.23 | 0.00 | 0.36 | 98 | 1004.8 |
| 20260505160633 | 13 | 340 | 9.7 | 0.0 | 0.23 | 0.00 | 0.33 | 98 | 1004.8 |
| 20260505152633 | 15 | 350 | 17.7 | 0.0 | 0.00 | 0.00 | 0.18 | 94 | 1004.8 |
| 20260505151633 | 16 | 355 | 17.7 | 0.0 | 0.00 | 0.00 | 0.15 | 88 | 1004.8 |
| 20260505150633 | 20 | 355 | 6.4 | 0.0 | 0.00 | 0.00 | 0.00 | 64 | 1003.8 |
| 20260505140633 | 22 | 355 | 3.2 | 0.0 | 0.00 | 0.00 | 0.00 | 43 | 1002.7 |
| 20260505124633 | 26 | 355 | 12.9 | 0.0 | 0.00 | 0.00 | 0.00 | 37 | 1003.8 |
| 20260505123633 | 26 | 355 | 9.7 | 0.0 | 0.00 | 0.00 | 0.00 | 39 | 1003.8 |
| 20260505122633 | 25 | 355 | 0.0 | 0.0 | 0.00 | 0.00 | 0.00 | 40 | 1003.8 |
| 20260505121633 | 23 | 355 | 3.2 | 0.0 | 0.00 | 0.00 | 0.00 | 40 | 1003.8 |
| 20260505120633 | 25 | 355 | 8.0 | 0.0 | 0.00 | 0.00 | 0.00 | 39 | 1003.8 |
| 20260505115633 | 26 | 355 | 11.3 | 0.0 | 0.00 | 0.00 | 0.00 | 37 | 1003.8 |
| 20260505114633 | 26 | 355 | 14.5 | 0.0 | 0.00 | 0.00 | 0.00 | 37 | 1003.8 |
| 20260505113633 | 27 | 350 | 6.4 | 0.0 | 0.00 | 0.00 | 0.00 | 36 | 1004.8 |
| 20260505112633 | 26 | 350 | 3.2 | 0.0 | 0.00 | 0.00 | 0.00 | 38 | 1004.8 |
| 20260505111633 | 26 | 355 | 1.6 | 0.0 | 0.00 | 0.00 | 0.00 | 36 | 1004.8 |
| 20260505110633 | 26 | 355 | 12.9 | 0.0 | 0.00 | 0.00 | 0.00 | 37 | 1004.9 |
| 20260505101633 | 26 | 355 | 9.7 | 0.0 | 0.00 | 0.00 | 0.00 | 43 | 1004.9 |
| 20260505100633 | 25 | 350 | 11.3 | 0.0 | 0.00 | 0.00 | 0.00 | 46 | 1004.9 |
| 20260505095633 | 23 | 355 | 9.7 | 0.0 | 0.00 | 0.00 | 0.00 | 43 | 1004.9 |
| 20260505094633 | 22 | 355 | 11.3 | 0.0 | 0.00 | 0.00 | 0.00 | 48 | 1004.9 |
| 20260505093633 | 23 | 355 | 6.4 | 0.0 | 0.00 | 0.00 | 0.00 | 47 | 1004.9 |
| 20260505092633 | 23 | 355 | 12.9 | 0.0 | 0.00 | 0.00 | 0.00 | 47 | 1006.0 |
| 20260505091633 | 23 | 355 | 9.7 | 0.0 | 0.00 | 0.00 | 0.00 | 45 | 1006.0 |
| 20260505090633 | 23 | 350 | 8.0 | 0.0 | 0.00 | 0.00 | 0.00 | 50 | 1006.0 |
| 20260505085633 | 22 | 355 | 1.6 | 0.0 | 0.00 | 0.00 | 0.00 | 51 | 1006.0 |
| 20260505084633 | 22 | 355 | 9.7 | 0.0 | 0.00 | 0.00 | 0.00 | 54 | 1006.0 |
| 20260505083633 | 22 | 355 | 6.4 | 0.0 | 0.00 | 0.00 | 0.00 | 57 | 1006.0 |
| 20260505082633 | 21 | 355 | 8.0 | 0.0 | 0.00 | 0.00 | 0.00 | 59 | 1006.0 |
| 20260505081633 | 21 | 355 | 8.0 | 0.0 | 0.00 | 0.00 | 0.00 | 60 | 1006.0 |
| 20260505080633 | 21 | 355 | 9.7 | 0.0 | 0.00 | 0.00 | 0.00 | 61 | 1006.0 |
| 20260505075633 | 20 | 355 | 6.4 | 0.0 | 0.00 | 0.00 | 0.00 | 64 | 1006.0 |
| 20260505074633 | 18 | 355 | 6.4 | 0.0 | 0.00 | 0.00 | 0.00 | 67 | 1007.0 |
| 20260505073633 | 17 | 355 | 3.2 | 0.0 | 0.00 | 0.00 | 0.00 | 69 | 1007.0 |
| 20260505072633 | 17 | 355 | 0.0 | 0.0 | 0.00 | 0.00 | 0.00 | 71 | 1007.0 |
| 20260505071633 | 17 | 355 | 9.7 | 0.0 | 0.00 | 0.00 | 0.00 | 73 | 1003.9 |
| 20260505070633 | 17 | 355 | 3.2 | 0.0 | 0.00 | 0.00 | 0.00 | 75 | 1007.0 |
| 20260505065633 | 16 | 355 | 1.6 | 0.0 | 0.00 | 0.00 | 0.00 | 77 | 1007.0 |
| 20260505064633 | 16 | 355 | 1.6 | 0.0 | 0.00 | 0.00 | 0.00 | 78 | 1007.0 |
| 20260505063633 | 15 | 355 | 6.4 | 0.0 | 0.00 | 0.00 | 0.00 | 79 | 1007.0 |
| 20260505062633 | 15 | 355 | 0.0 | 0.0 | 0.00 | 0.00 | 0.00 | 81 | 1007.0 |
| 20260505061633 | 13 | 0 | 0.0 | 0.0 | 0.00 | 0.00 | 0.00 | 82 | 1007.0 |
| 20260505060633 | 13 | 355 | 0.0 | 0.0 | 0.00 | 0.00 | 0.00 | 85 | 1007.0 |
| 20260505055633 | 12 | 355 | 0.0 | 0.0 | 0.00 | 0.00 | 0.00 | 89 | 1007.0 |
| 20260505054633 | 12 | 355 | 0.0 | 0.0 | 0.00 | 0.00 | 0.00 | 90 | 1007.0 |
| 20260505053633 | 12 | 355 | 0.0 | 0.0 | 0.00 | 0.00 | 0.00 | 89 | 1007.0 |
| 20260505052633 | 12 | 355 | 0.0 | 0.0 | 0.00 | 0.00 | 0.00 | 89 | 1007.0 |
| 20260505051633 | 12 | 355 | 0.0 | 0.0 | 0.00 | 0.00 | 0.00 | 89 | 1007.0 |
| 20260505050633 | 12 | 355 | 0.0 | 0.0 | 0.00 | 0.00 | 0.00 | 90 | 1007.0 |
| 20260505041633 | 11 | 355 | 0.0 | 0.0 | 0.00 | 0.00 | 0.00 | 92 | 1007.0 |
| 20260505040633 | 11 | 355 | 0.0 | 0.0 | 0.00 | 0.00 | 0.00 | 92 | 1007.0 |
| 20260505035633 | 11 | 355 | 0.0 | 0.0 | 0.00 | 0.00 | 0.00 | 90 | 1007.0 |
| 20260505034633 | 12 | 355 | 0.0 | 0.0 | 0.00 | 0.00 | 0.00 | 90 | 1007.0 |
| 20260505033633 | 12 | 355 | 0.0 | 0.0 | 0.00 | 0.00 | 0.00 | 89 | 1007.0 |
| 20260505032633 | 12 | 355 | 0.0 | 0.0 | 0.00 | 0.00 | 0.00 | 87 | 1007.0 |
| 20260505031633 | 12 | 355 | 0.0 | 0.0 | 0.00 | 0.00 | 0.00 | 86 | 1007.0 |
| 20260505030633 | 12 | 355 | 0.0 | 0.0 | 0.00 | 0.00 | 0.00 | 86 | 1007.0 |
| 20260505025633 | 12 | 355 | 0.0 | 0.0 | 0.00 | 0.00 | 0.00 | 85 | 1007.0 |
| 20260505024633 | 12 | 355 | 0.0 | 0.0 | 0.00 | 0.00 | 0.00 | 84 | 1007.9 |
| 20260505023633 | 12 | 355 | 1.6 | 0.0 | 0.00 | 0.00 | 0.00 | 84 | 1007.9 |
| 20260505022633 | 12 | 355 | 0.0 | 0.0 | 0.00 | 0.00 | 0.00 | 86 | 1007.9 |
| 20260505021633 | 12 | 355 | 1.6 | 0.0 | 0.00 | 0.00 | 0.00 | 85 | 1007.9 |
| 20260505020633 | 12 | 355 | 0.0 | 0.0 | 0.00 | 0.00 | 0.00 | 84 | 1007.9 |
| 20260505015633 | 13 | 355 | 3.2 | 0.0 | 0.00 | 0.00 | 0.00 | 82 | 1007.9 |
| 20260505014633 | 13 | 355 | 3.2 | 0.0 | 0.00 | 0.00 | 0.00 | 80 | 1007.9 |
| 20260505013633 | 13 | 355 | 0.0 | 0.0 | 0.00 | 0.00 | 0.00 | 80 | 1007.9 |
| 20260505012633 | 15 | 355 | 0.0 | 0.0 | 0.00 | 0.00 | 0.00 | 79 | 1007.9 |
| 20260505011633 | 15 | 355 | 0.0 | 0.0 | 0.00 | 0.00 | 0.00 | 79 | 1007.9 |
| 20260505010632 | 15 | 355 | 0.0 | 0.0 | 0.00 | 0.00 | 0.00 | 81 | 1007.9 |
| 20260505005633 | 15 | 355 | 0.0 | 0.0 | 0.00 | 0.00 | 0.00 | 81 | 1007.9 |
| 20260505004633 | 15 | 355 | 0.0 | 0.0 | 0.00 | 0.00 | 0.00 | 82 | 1007.9 |
| 20260505003633 | 15 | 355 | 1.6 | 0.0 | 0.00 | 0.00 | 0.00 | 82 | 1009.0 |
| 20260505002632 | 15 | 355 | 0.0 | 0.0 | 0.00 | 0.00 | 0.00 | 84 | 1009.0 |
| 20260505001633 | 15 | 355 | 0.0 | 0.0 | 0.00 | 0.00 | 0.00 | 83 | 1009.0 |
| 20260505000632 | 15 | 355 | 0.0 | 0.0 | 0.00 | 0.00 | 0.00 | 82 | 1009.0 |
| 20260504235632 | 15 | 355 | 0.0 | 0.0 | 0.00 | 0.00 | 0.00 | 79 | 1009.0 |
| 20260504234633 | 16 | 355 | 0.0 | 0.0 | 0.00 | 0.00 | 0.00 | 74 | 1009.0 |
| 20260504233632 | 16 | 355 | 0.0 | 0.0 | 0.00 | 0.00 | 0.00 | 71 | 1009.0 |
| 20260504232633 | 16 | 355 | 0.0 | 0.0 | 0.00 | 0.00 | 0.00 | 69 | 1009.0 |
| 20260504231632 | 16 | 355 | 0.0 | 0.0 | 0.00 | 0.00 | 0.00 | 69 | 1009.0 |
| 20260504230632 | 16 | 355 | 0.0 | 0.0 | 0.00 | 0.00 | 0.00 | 70 | 1009.0 |
| 20260504225632 | 16 | 355 | 0.0 | 0.0 | 0.00 | 0.00 | 0.00 | 69 | 1009.0 |
| 20260504224633 | 16 | 355 | 0.0 | 0.0 | 0.00 | 0.00 | 0.00 | 68 | 1009.0 |
| 20260504223632 | 16 | 355 | 0.0 | 0.0 | 0.00 | 0.00 | 0.00 | 69 | 1009.0 |
| 20260504222632 | 16 | 355 | 0.0 | 0.0 | 0.00 | 0.00 | 0.00 | 68 | 1009.0 |
| 20260504221632 | 16 | 355 | 0.0 | 0.0 | 0.00 | 0.00 | 0.00 | 68 | 1010.0 |
| 20260504220632 | 16 | 355 | 0.0 | 0.0 | 0.00 | 0.00 | 0.00 | 67 | 1009.0 |
| 20260504215632 | 17 | 355 | 0.0 | 0.0 | 0.00 | 0.00 | 0.00 | 66 | 1009.0 |
| 20260504214632 | 17 | 355 | 0.0 | 0.0 | 0.00 | 0.00 | 0.00 | 65 | 1009.0 |
| 20260504213632 | 17 | 355 | 0.0 | 0.0 | 0.00 | 0.00 | 0.00 | 63 | 1010.0 |
| 20260504212632 | 17 | 355 | 6.4 | 0.0 | 0.00 | 0.00 | 0.00 | 62 | 1010.0 |
| 20260504211632 | 17 | 355 | 1.6 | 0.0 | 0.00 | 0.00 | 0.00 | 63 | 1010.0 |
| 20260504210632 | 17 | 355 | 9.7 | 0.0 | 0.00 | 0.00 | 0.00 | 63 | 1010.0 |
| 20260504205632 | 17 | 355 | 3.2 | 0.0 | 0.00 | 0.00 | 0.00 | 65 | 1010.0 |